Time,TemperatureF,DewpointF,PressureIn,WindDirection,WindDirectionDegrees,WindSpeedMPH,WindSpeedGustMPH,Humidity,HourlyPrecipIn,Conditions,Clouds,dailyrainin,SoftwareType,DateUTC
2013-04-19 00:02:00,19.0,-2.0,-100.00,NE,50,15.0,18.0,39,0.00,,,0.00,,2013-04-19 08:02:00,
2013-04-19 00:12:00,19.0,-2.0,-100.00,NE,50,15.0,18.0,39,0.00,,,0.00,,2013-04-19 08:12:00,
2013-04-19 00:21:00,18.0,-2.0,-100.00,NE,50,11.0,16.0,39,0.00,,,0.00,,2013-04-19 08:21:00,
2013-04-19 00:32:00,18.0,-2.0,-100.00,NE,50,11.0,16.0,39,0.00,,,0.00,,2013-04-19 08:32:00,
2013-04-19 00:42:00,18.0,-2.0,-100.00,NE,50,11.0,16.0,39,0.00,,,0.00,,2013-04-19 08:42:00,
2013-04-19 00:51:00,18.0,-2.0,-100.00,NE,50,10.0,16.0,40,0.00,,,0.00,,2013-04-19 08:51:00,
2013-04-19 01:01:00,18.0,-2.0,-100.00,NE,50,10.0,16.0,40,0.00,,,0.00,,2013-04-19 09:01:00,
2013-04-19 01:11:00,18.0,-2.0,-100.00,NE,50,10.0,16.0,40,0.00,,,0.00,,2013-04-19 09:11:00,
2013-04-19 01:21:00,18.0,-2.0,-100.00,NE,35,9.0,17.0,41,0.00,,,0.00,,2013-04-19 09:21:00,
2013-04-19 01:32:00,18.0,-2.0,-100.00,NE,35,9.0,17.0,41,0.00,,,0.00,,2013-04-19 09:32:00,
2013-04-19 01:42:00,18.0,-2.0,-100.00,NE,35,9.0,17.0,41,0.00,,,0.00,,2013-04-19 09:42:00,
2013-04-19 01:52:00,18.0,-2.0,-100.00,NE,40,10.0,16.0,41,0.00,,,0.00,,2013-04-19 09:52:00,
2013-04-19 02:02:00,18.0,-2.0,-100.00,NE,40,10.0,16.0,41,0.00,,,0.00,,2013-04-19 10:02:00,
2013-04-19 02:13:00,18.0,-2.0,-100.00,NE,40,10.0,16.0,41,0.00,,,0.00,,2013-04-19 10:13:00,
2013-04-19 02:23:00,17.0,-1.0,-100.00,NE,35,9.0,18.0,42,0.00,,,0.00,,2013-04-19 10:23:00,
2013-04-19 02:33:00,17.0,-1.0,-100.00,NE,35,9.0,18.0,42,0.00,,,0.00,,2013-04-19 10:33:00,
2013-04-19 02:42:00,17.0,-1.0,-100.00,NE,35,9.0,18.0,42,0.00,,,0.00,,2013-04-19 10:42:00,
2013-04-19 02:52:00,17.0,-1.0,-100.00,NE,45,10.0,16.0,43,0.00,,,0.00,,2013-04-19 10:52:00,
2013-04-19 03:02:00,17.0,-1.0,-100.00,NE,45,10.0,16.0,43,0.00,,,0.00,,2013-04-19 11:02:00,
2013-04-19 03:11:00,17.0,-1.0,-100.00,NE,45,10.0,16.0,43,0.00,,,0.00,,2013-04-19 11:11:00,
2013-04-19 03:21:00,17.0,-1.0,-100.00,NE,45,10.0,15.0,44,0.00,,,0.00,,2013-04-19 11:21:00,
2013-04-19 03:32:00,17.0,-1.0,-100.00,NE,45,10.0,15.0,44,0.00,,,0.00,,2013-04-19 11:32:00,
2013-04-19 03:42:00,17.0,-1.0,-100.00,NE,45,10.0,15.0,44,0.00,,,0.00,,2013-04-19 11:42:00,
2013-04-19 03:52:00,17.0,-1.0,-100.00,NE,45,11.0,14.0,45,0.00,,,0.00,,2013-04-19 11:52:00,
2013-04-19 04:02:00,17.0,-1.0,-100.00,NE,45,11.0,14.0,45,0.00,,,0.00,,2013-04-19 12:02:00,
2013-04-19 04:12:00,17.0,-1.0,-100.00,NE,45,11.0,14.0,45,0.00,,,0.00,,2013-04-19 12:12:00,
2013-04-19 04:22:00,17.0,0.0,-100.00,NE,45,9.0,14.0,46,0.00,,,0.00,,2013-04-19 12:22:00,
2013-04-19 04:32:00,17.0,0.0,-100.00,NE,45,9.0,14.0,46,0.00,,,0.00,,2013-04-19 12:32:00,
2013-04-19 04:42:00,17.0,0.0,-100.00,NE,45,9.0,14.0,46,0.00,,,0.00,,2013-04-19 12:42:00,
2013-04-19 04:52:00,17.0,0.0,-100.00,NE,50,10.0,17.0,47,0.00,,,0.00,,2013-04-19 12:52:00,
2013-04-19 05:01:00,17.0,0.0,-100.00,NE,50,10.0,17.0,47,0.00,,,0.00,,2013-04-19 13:01:00,
2013-04-19 05:11:00,17.0,0.0,-100.00,NE,50,10.0,17.0,47,0.00,,,0.00,,2013-04-19 13:11:00,
2013-04-19 05:21:00,16.0,0.0,-100.00,NE,45,9.0,16.0,47,0.00,,,0.00,,2013-04-19 13:21:00,
2013-04-19 05:32:00,16.0,0.0,-100.00,NE,45,9.0,16.0,47,0.00,,,0.00,,2013-04-19 13:32:00,
2013-04-19 05:52:00,16.0,0.0,-100.00,NE,50,9.0,14.0,48,0.00,,,0.00,,2013-04-19 13:52:00,
2013-04-19 06:01:00,16.0,0.0,-100.00,NE,50,9.0,14.0,48,0.00,,,0.00,,2013-04-19 14:01:00,
2013-04-19 06:11:00,16.0,0.0,-100.00,NE,50,9.0,14.0,48,0.00,,,0.00,,2013-04-19 14:11:00,
2013-04-19 06:52:00,16.0,1.0,-100.00,NE,45,7.0,12.0,49,0.00,,,0.00,,2013-04-19 14:52:00,
2013-04-19 07:52:00,17.0,2.0,-100.00,ENE,65,4.0,8.0,49,0.00,,,0.00,,2013-04-19 15:52:00,
2013-04-19 08:03:00,17.0,2.0,-100.00,ENE,65,4.0,8.0,49,0.00,,,0.00,,2013-04-19 16:03:00,
2013-04-19 08:12:00,17.0,2.0,-100.00,ENE,65,4.0,8.0,49,0.00,,,0.00,,2013-04-19 16:12:00,
2013-04-19 08:23:00,17.0,2.0,-100.00,NE,50,6.0,7.0,49,0.00,,,0.00,,2013-04-19 16:23:00,
2013-04-19 08:32:00,17.0,2.0,-100.00,NE,50,6.0,7.0,49,0.00,,,0.00,,2013-04-19 16:32:00,
2013-04-19 08:42:00,17.0,2.0,-100.00,NE,50,6.0,7.0,49,0.00,,,0.00,,2013-04-19 16:42:00,
2013-04-19 08:52:00,18.0,2.0,-100.00,ENE,60,4.0,9.0,48,0.00,,,0.00,,2013-04-19 16:52:00,
2013-04-19 09:02:00,18.0,2.0,-100.00,ENE,60,4.0,9.0,48,0.00,,,0.00,,2013-04-19 17:02:00,
2013-04-19 09:12:00,18.0,2.0,-100.00,ENE,60,4.0,9.0,48,0.00,,,0.00,,2013-04-19 17:12:00,
2013-04-19 09:21:00,19.0,3.0,-100.00,ENE,65,6.0,13.0,47,0.00,,,0.00,,2013-04-19 17:21:00,
2013-04-19 09:33:00,19.0,3.0,-100.00,ENE,65,6.0,13.0,47,0.00,,,0.00,,2013-04-19 17:33:00,
2013-04-19 09:42:00,19.0,3.0,-100.00,ENE,65,6.0,13.0,47,0.00,,,0.00,,2013-04-19 17:42:00,
2013-04-19 09:52:00,21.0,4.0,-100.00,ENE,75,4.0,10.0,46,0.00,,,0.00,,2013-04-19 17:52:00,
2013-04-19 10:01:00,21.0,4.0,-100.00,ENE,75,4.0,10.0,46,0.00,,,0.00,,2013-04-19 18:01:00,
2013-04-19 10:13:00,21.0,4.0,-100.00,ENE,75,4.0,10.0,46,0.00,,,0.00,,2013-04-19 18:13:00,
2013-04-19 10:22:00,22.0,4.0,-100.00,ENE,70,6.0,10.0,44,0.00,,,0.00,,2013-04-19 18:22:00,
2013-04-19 10:33:00,22.0,4.0,-100.00,ENE,70,6.0,10.0,44,0.00,,,0.00,,2013-04-19 18:33:00,
2013-04-19 10:42:00,22.0,4.0,-100.00,ENE,70,6.0,10.0,44,0.00,,,0.00,,2013-04-19 18:42:00,
2013-04-19 10:52:00,26.0,6.0,-100.00,East,90,3.0,11.0,41,0.00,,,0.00,,2013-04-19 18:52:00,
2013-04-19 11:01:00,26.0,6.0,-100.00,East,90,3.0,11.0,41,0.00,,,0.00,,2013-04-19 19:01:00,
2013-04-19 11:11:00,26.0,6.0,-100.00,East,90,3.0,11.0,41,0.00,,,0.00,,2013-04-19 19:11:00,
2013-04-19 11:21:00,27.0,6.0,-100.00,ENE,65,2.0,10.0,39,0.00,,,0.00,,2013-04-19 19:21:00,
2013-04-19 11:32:00,27.0,6.0,-100.00,ENE,65,2.0,10.0,39,0.00,,,0.00,,2013-04-19 19:32:00,
2013-04-19 11:41:00,27.0,6.0,-100.00,ENE,65,2.0,10.0,39,0.00,,,0.00,,2013-04-19 19:41:00,
2013-04-19 11:52:00,29.0,6.0,-100.00,East,85,4.0,9.0,36,0.00,,,0.00,,2013-04-19 19:52:00,
2013-04-19 12:01:00,29.0,6.0,-100.00,East,85,4.0,9.0,36,0.00,,,0.00,,2013-04-19 20:01:00,
2013-04-19 12:11:00,29.0,6.0,-100.00,East,85,4.0,9.0,36,0.00,,,0.00,,2013-04-19 20:11:00,
2013-04-19 12:22:00,31.0,6.0,-100.00,ENE,65,2.0,11.0,35,0.00,,,0.00,,2013-04-19 20:22:00,
2013-04-19 12:32:00,31.0,6.0,-100.00,ENE,65,2.0,11.0,35,0.00,,,0.00,,2013-04-19 20:32:00,
2013-04-19 12:41:00,31.0,6.0,-100.00,ENE,65,2.0,11.0,35,0.00,,,0.00,,2013-04-19 20:41:00,
2013-04-19 12:51:00,31.0,7.0,-100.00,SE,145,1.0,9.0,34,0.00,,,0.00,,2013-04-19 20:51:00,
2013-04-19 13:01:00,31.0,7.0,-100.00,SE,145,1.0,9.0,34,0.00,,,0.00,,2013-04-19 21:01:00,
2013-04-19 13:11:00,31.0,7.0,-100.00,SE,145,1.0,9.0,34,0.00,,,0.00,,2013-04-19 21:11:00,
2013-04-19 13:21:00,33.0,7.0,-100.00,SE,145,4.0,8.0,33,0.00,,,0.00,,2013-04-19 21:21:00,
2013-04-19 13:32:00,33.0,7.0,-100.00,SE,145,4.0,8.0,33,0.00,,,0.00,,2013-04-19 21:32:00,
2013-04-19 13:42:00,33.0,7.0,-100.00,SE,145,4.0,8.0,33,0.00,,,0.00,,2013-04-19 21:42:00,
2013-04-19 13:52:00,34.0,8.0,-100.00,NE,35,2.0,6.0,32,0.00,,,0.00,,2013-04-19 21:52:00,
2013-04-19 14:02:00,34.0,8.0,-100.00,NE,35,2.0,6.0,32,0.00,,,0.00,,2013-04-19 22:02:00,
2013-04-19 14:12:00,34.0,8.0,-100.00,NE,35,2.0,6.0,32,0.00,,,0.00,,2013-04-19 22:12:00,
2013-04-19 14:22:00,35.0,8.0,-100.00,ESE,115,2.0,11.0,31,0.00,,,0.00,,2013-04-19 22:22:00,
2013-04-19 14:33:00,35.0,8.0,-100.00,ESE,115,2.0,11.0,31,0.00,,,0.00,,2013-04-19 22:33:00,
2013-04-19 14:42:00,35.0,8.0,-100.00,ESE,115,2.0,11.0,31,0.00,,,0.00,,2013-04-19 22:42:00,
2013-04-19 14:52:00,36.0,8.0,-100.00,SSE,165,2.0,12.0,29,0.01,,,0.01,,2013-04-19 22:52:00,
2013-04-19 15:02:00,36.0,8.0,-100.00,SSE,165,2.0,12.0,29,0.01,,,0.01,,2013-04-19 23:02:00,
2013-04-19 15:11:00,36.0,8.0,-100.00,SSE,165,2.0,12.0,29,0.01,,,0.01,,2013-04-19 23:11:00,
2013-04-19 15:22:00,37.0,8.0,-100.00,SSE,150,2.0,9.0,29,0.01,,,0.01,,2013-04-19 23:22:00,
2013-04-19 15:32:00,37.0,8.0,-100.00,SSE,150,2.0,9.0,29,0.01,,,0.01,,2013-04-19 23:32:00,
2013-04-19 15:42:00,37.0,8.0,-100.00,SSE,150,2.0,9.0,29,0.01,,,0.01,,2013-04-19 23:42:00,
2013-04-19 15:52:00,39.0,9.0,-100.00,NNE,25,2.0,7.0,27,0.00,,,0.01,,2013-04-19 23:52:00,
2013-04-19 16:01:00,39.0,9.0,-100.00,NNE,25,2.0,7.0,27,0.00,,,0.01,,2013-04-20 00:01:00,
2013-04-19 16:12:00,39.0,9.0,-100.00,NNE,25,2.0,7.0,27,0.00,,,0.01,,2013-04-20 00:12:00,
2013-04-19 16:21:00,38.0,8.0,-100.00,NW,320,2.0,9.0,27,0.00,,,0.01,,2013-04-20 00:21:00,
2013-04-19 16:32:00,38.0,8.0,-100.00,NW,320,2.0,9.0,27,0.00,,,0.01,,2013-04-20 00:32:00,
2013-04-19 16:41:00,38.0,8.0,-100.00,NW,320,2.0,9.0,27,0.00,,,0.01,,2013-04-20 00:41:00,
2013-04-19 16:51:00,39.0,8.0,-100.00,NE,50,6.0,9.0,26,0.00,,,0.01,,2013-04-20 00:51:00,
2013-04-19 17:01:00,39.0,8.0,-100.00,NE,50,6.0,9.0,26,0.00,,,0.01,,2013-04-20 01:01:00,
2013-04-19 17:11:00,39.0,8.0,-100.00,NE,50,6.0,9.0,26,0.00,,,0.01,,2013-04-20 01:11:00,
2013-04-19 17:21:00,38.0,7.0,-100.00,NE,40,4.0,11.0,26,0.00,,,0.01,,2013-04-20 01:21:00,
2013-04-19 17:32:00,38.0,7.0,-100.00,NE,40,4.0,11.0,26,0.00,,,0.01,,2013-04-20 01:32:00,
2013-04-19 17:42:00,38.0,7.0,-100.00,NE,40,4.0,11.0,26,0.00,,,0.01,,2013-04-20 01:42:00,
2013-04-19 17:52:00,40.0,8.0,-100.00,NW,310,3.0,7.0,26,0.00,,,0.01,,2013-04-20 01:52:00,
2013-04-19 18:01:00,40.0,8.0,-100.00,NW,310,3.0,7.0,26,0.00,,,0.01,,2013-04-20 02:01:00,
2013-04-19 18:11:00,40.0,8.0,-100.00,NW,310,3.0,7.0,26,0.00,,,0.01,,2013-04-20 02:11:00,
2013-04-19 18:21:00,40.0,9.0,-100.00,WSW,240,2.0,5.0,27,0.00,,,0.01,,2013-04-20 02:21:00,
2013-04-19 18:32:00,40.0,9.0,-100.00,WSW,240,2.0,5.0,27,0.00,,,0.01,,2013-04-20 02:32:00,
2013-04-19 18:42:00,40.0,9.0,-100.00,WSW,240,2.0,5.0,27,0.00,,,0.01,,2013-04-20 02:42:00,
2013-04-19 18:52:00,38.0,8.0,-100.00,South,180,4.0,11.0,28,0.00,,,0.01,,2013-04-20 02:52:00,
2013-04-19 19:01:00,38.0,8.0,-100.00,South,180,4.0,11.0,28,0.00,,,0.01,,2013-04-20 03:01:00,
2013-04-19 19:11:00,38.0,8.0,-100.00,South,180,4.0,11.0,28,0.00,,,0.01,,2013-04-20 03:11:00,
2013-04-19 19:21:00,39.0,9.0,-100.00,SSE,165,4.0,7.0,27,0.00,,,0.01,,2013-04-20 03:21:00,
2013-04-19 19:33:00,39.0,9.0,-100.00,SSE,165,4.0,7.0,27,0.00,,,0.01,,2013-04-20 03:33:00,
2013-04-19 19:43:00,39.0,9.0,-100.00,SSE,165,4.0,7.0,27,0.00,,,0.01,,2013-04-20 03:43:00,
2013-04-19 19:52:00,38.0,8.0,-100.00,SSE,160,1.0,5.0,27,0.00,,,0.01,,2013-04-20 03:52:00,
2013-04-19 20:03:00,38.0,8.0,-100.00,SSE,160,1.0,5.0,27,0.00,,,0.01,,2013-04-20 04:03:00,
2013-04-19 20:12:00,38.0,8.0,-100.00,SSE,160,1.0,5.0,27,0.00,,,0.01,,2013-04-20 04:12:00,
2013-04-19 20:23:00,37.0,7.0,-100.00,SSW,195,2.0,4.0,27,0.00,,,0.01,,2013-04-20 04:23:00,
2013-04-19 20:32:00,37.0,7.0,-100.00,SSW,195,2.0,4.0,27,0.00,,,0.01,,2013-04-20 04:32:00,
2013-04-19 20:42:00,37.0,7.0,-100.00,SSW,195,2.0,4.0,27,0.00,,,0.01,,2013-04-20 04:42:00,
2013-04-19 20:52:00,36.0,6.0,-100.00,South,185,1.0,6.0,27,0.00,,,0.01,,2013-04-20 04:52:00,
2013-04-19 21:00:00,32.0,3.0,-100.00,SW,220,2.0,3.0,28,0.00,,,0.01,,2013-04-20 05:00:00,
2013-04-19 21:02:00,36.0,6.0,-100.00,South,185,1.0,6.0,27,0.00,,,0.01,,2013-04-20 05:02:00,
2013-04-19 21:12:00,36.0,6.0,-100.00,South,185,1.0,6.0,27,0.00,,,0.01,,2013-04-20 05:12:00,
2013-04-19 21:21:00,33.0,4.0,-100.00,SSW,200,2.0,2.0,27,0.00,,,0.01,,2013-04-20 05:21:00,
2013-04-19 21:32:00,33.0,4.0,-100.00,SSW,200,2.0,2.0,27,0.00,,,0.01,,2013-04-20 05:32:00,
2013-04-19 21:42:00,33.0,4.0,-100.00,SSW,200,2.0,2.0,27,0.00,,,0.01,,2013-04-20 05:42:00,
2013-04-19 21:51:00,32.0,3.0,-100.00,SW,220,2.0,3.0,28,0.00,,,0.01,,2013-04-20 05:51:00,
2013-04-19 22:21:00,30.0,2.0,-100.00,WNW,290,0.0,1.0,30,0.00,,,0.01,,2013-04-20 06:21:00,
2013-04-19 22:32:00,30.0,2.0,-100.00,WNW,290,0.0,1.0,30,0.00,,,0.01,,2013-04-20 06:32:00,
2013-04-19 22:42:00,30.0,2.0,-100.00,WNW,290,0.0,1.0,30,0.00,,,0.01,,2013-04-20 06:42:00,
2013-04-19 22:52:00,30.0,2.0,-100.00,West,265,0.0,0.0,30,0.00,,,0.01,,2013-04-20 06:52:00,
2013-04-19 23:01:00,30.0,2.0,-100.00,West,265,0.0,0.0,30,0.00,,,0.01,,2013-04-20 07:01:00,
2013-04-19 23:11:00,30.0,2.0,-100.00,West,265,0.0,0.0,30,0.00,,,0.01,,2013-04-20 07:11:00,
2013-04-19 23:21:00,29.0,2.0,-100.00,NNE,15,2.0,2.0,31,0.00,,,0.01,,2013-04-20 07:21:00,
2013-04-19 23:32:00,29.0,2.0,-100.00,NNE,15,2.0,2.0,31,0.00,,,0.01,,2013-04-20 07:32:00,
2013-04-19 23:42:00,29.0,2.0,-100.00,NNE,15,2.0,2.0,31,0.00,,,0.01,,2013-04-20 07:42:00,
2013-04-19 23:52:00,29.0,3.0,-100.00,NE,55,2.0,3.0,32,0.00,,,0.01,,2013-04-20 07:52:00,